TimeEDT,TemperatureF,Dew PointF,Humidity,Sea Level PressureIn,VisibilityMPH,Wind Direction,Wind SpeedMPH,Gust SpeedMPH,PrecipitationIn,Events,Conditions,WindDirDegrees,DateUTC
12:51 AM,30.9,14.0,50,30.32,10.0,WNW,11.5,17.3,N/A,,Overcast,290,2013-04-21 04:51:00
1:51 AM,30.9,14.0,50,30.34,10.0,West,8.1,-,N/A,,Overcast,280,2013-04-21 05:51:00
2:51 AM,30.0,17.1,59,30.36,10.0,Variable,4.6,-,N/A,,Overcast,0,2013-04-21 06:51:00
3:51 AM,28.0,17.1,63,30.40,10.0,NW,15.0,25.3,0.00,,Overcast,320,2013-04-21 07:51:00
4:51 AM,28.0,15.1,58,30.44,10.0,WNW,11.5,19.6,N/A,,Mostly Cloudy,300,2013-04-21 08:51:00
5:51 AM,27.0,16.0,63,30.48,10.0,NNW,10.4,18.4,N/A,,Overcast,330,2013-04-21 09:51:00
6:51 AM,27.0,14.0,58,30.53,10.0,NNW,10.4,19.6,0.00,,Overcast,330,2013-04-21 10:51:00
7:51 AM,28.0,14.0,56,30.57,10.0,NW,10.4,17.3,N/A,,Scattered Clouds,320,2013-04-21 11:51:00
8:51 AM,28.9,14.0,54,30.59,10.0,NNW,13.8,20.7,N/A,,Clear,340,2013-04-21 12:51:00
9:51 AM,32.0,14.0,48,30.62,10.0,WNW,11.5,18.4,N/A,,Scattered Clouds,290,2013-04-21 13:51:00
10:51 AM,33.1,15.1,48,30.64,10.0,Variable,6.9,18.4,N/A,,Clear,0,2013-04-21 14:51:00
11:51 AM,36.0,14.0,41,30.64,10.0,WNW,9.2,19.6,N/A,,Clear,290,2013-04-21 15:51:00
12:51 PM,37.9,15.1,39,30.64,10.0,NNW,6.9,-,N/A,,Clear,330,2013-04-21 16:51:00
1:51 PM,39.0,14.0,36,30.64,10.0,NW,8.1,17.3,N/A,,Clear,310,2013-04-21 17:51:00
2:51 PM,41.0,12.9,32,30.65,10.0,West,8.1,21.9,N/A,,Clear,280,2013-04-21 18:51:00
3:51 PM,42.1,12.9,31,30.65,10.0,WNW,12.7,-,N/A,,Clear,300,2013-04-21 19:51:00
4:51 PM,42.1,10.0,27,30.66,10.0,WNW,10.4,17.3,N/A,,Clear,300,2013-04-21 20:51:00
5:51 PM,42.1,10.9,28,30.66,10.0,WNW,8.1,-,N/A,,Clear,290,2013-04-21 21:51:00
6:51 PM,41.0,10.9,29,30.67,10.0,NW,9.2,-,N/A,,Clear,310,2013-04-21 22:51:00
7:51 PM,37.0,12.9,37,30.70,10.0,NNE,3.5,-,N/A,,Clear,20,2013-04-21 23:51:00
8:51 PM,28.9,17.1,61,30.74,10.0,Calm,Calm,-,N/A,,Clear,0,2013-04-22 00:51:00
9:51 PM,28.9,16.0,58,30.74,10.0,Calm,Calm,-,N/A,,Clear,0,2013-04-22 01:51:00
10:51 PM,28.0,16.0,61,30.75,10.0,Calm,Calm,-,N/A,,Clear,0,2013-04-22 02:51:00
11:51 PM,26.1,16.0,66,30.75,10.0,Calm,Calm,-,N/A,,Clear,0,2013-04-22 03:51:00